Theta_e
292 293 293 293 294 294 293 293 294 295 295 295 294 294 294 294 296 296 295 295 293 293 294 294 293 295 295 297 299 300 300 300 290 286 287 288 286 287 285 287 288 287 287
291 291 291 293 291 291 290 291 294 294 292 291 291 291 291 290 291 290 289 290 290 290 291 291 291 293 292 293 294 293 293 293 290 285 285 285 285 285 285 285 287 288 286
289 288 288 288 289 288 289 289 290 290 290 290 290 289 289 289 289 289 288 288 287 287 288 288 289 290 288 289 290 290 290 291 290 287 284 284 284 284 284 284 284 284 284
286 286 285 286 286 287 287 288 288 289 288 288 289 288 288 288 288 287 287 286 286 285 286 286 286 286 286 287 287 287 288 287 287 286 284 282 282 282 282 281 280 280 280
284 284 283 285 285 285 285 285 286 286 286 287 287 287 287 287 287 285 285 285 284 283 284 284 285 285 287 287 286 285 286 285 285 284 282 281 280 280 280 279 278 278 278
283 283 284 283 283 283 283 284 284 284 284 284 284 284 284 285 287 286 284 282 282 281 280 281 282 283 285 287 287 287 285 283 282 281 279 279 278 278 278 277 277 276 276
283 283 283 283 282 282 283 282 282 282 283 282 283 283 283 283 285 284 283 281 280 280 280 280 279 280 280 279 282 282 282 284 283 280 279 278 277 277 277 277 276 276 275
281 281 282 282 281 281 281 281 281 281 281 281 281 282 282 283 285 284 283 281 280 280 279 280 280 280 280 279 278 278 279 280 279 278 277 276 276 277 277 276 275 274 274
280 280 280 281 281 281 280 280 280 280 280 280 281 281 281 282 285 284 281 280 279 279 280 280 280 280 284 282 278 277 277 277 281 283 282 282 282 281 279 275 271 270 267
279 279 280 280 280 279 279 279 280 280 280 280 280 280 281 282 286 285 282 280 279 279 280 280 283 281 284 282 278 277 276 276 276 277 277 278 278 277 278 275 273 267 266
279 279 279 280 280 280 279 279 279 278 278 277 278 278 280 280 283 285 284 280 280 279 279 278 280 283 283 283 282 278 277 277 275 273 273 273 274 274 274 274 275 271 267
277 277 277 277 279 279 277 277 277 277 276 275 275 275 276 278 283 284 284 283 281 278 277 277 278 283 283 283 280 282 281 276 270 269 269 271 272 272 272 271 270 269 270
274 273 274 275 277 277 275 275 275 275 274 273 275 273 274 276 277 283 285 283 282 278 278 280 281 281 281 278 281 280 274 271 271 272 272 272 272 272 272 273 273 272 268
269 270 271 271 272 272 275 275 274 274 273 274 274 273 274 278 279 280 281 280 281 280 279 279 281 281 281 279 277 277 276 274 274 272 271 271 274 273 272 273 271 271 262
268 268 269 271 270 271 272 271 273 273 274 271 275 278 278 278 281 284 284 282 281 281 278 278 278 277 277 274 274 274 274 275 274 274 272 271 267 266 266 267 263 260 260
268 268 268 268 268 269 269 271 282 282 283 283 283 281 280 283 283 283 283 284 284 285 275 275 271 270 270 269 268 269 269 266 268 267 264 264 265 265 263 261 261 258 258
265 267 266 267 268 267 267 269 273 278 282 281 280 281 281 281 279 279 281 279 278 274 267 268 267 267 267 267 266 265 264 265 262 261 261 262 262 260 260 259 260 259 259
261 262 263 264 265 266 272 274 275 275 274 273 275 275 278 277 276 275 274 269 262 264 263 261 263 264 263 262 261 261 261 261 261 261 261 261 260 261 260 261 261 259 259
262 263 262 262 266 272 272 273 273 273 269 267 266 267 266 272 271 270 268 259 255 257 256 257 257 258 258 258 258 258 258 259 259 258 259 259 258 258 257 257 257 259 257
259 263 261 260 267 269 270 269 268 264 262 260 259 259 256 258 257 257 258 255 255 254 254 253 254 254 254 255 256 256 256 255 256 255 256 256 256 254 255 254 254 254 254
258 258 260 259 259 260 260 260 261 259 256 255 258 266 266 255 253 252 252 253 252 253 253 253 252 252 252 253 254 254 254 256 256 257 257 256 255 254 254 256 255 254 254
257 257 256 256 257 259 257 258 257 257 256 256 256 261 265 254 253 252 252 252 252 252 252 252 252 252 252 252 253 253 254 255 255 255 256 256 254 253 252 252 251 252 251
257 256 256 255 256 257 257 255 255 255 254 252 254 254 253 252 252 251 251 251 250 251 252 251 250 253 252 251 252 252 253 256 258 259 258 257 256 255 251 251 251 251 250
255 256 256 253 254 254 254 253 254 254 253 252 251 251 251 252 251 252 252 253 252 251 251 251 254 254 254 254 254 252 251 254 255 258 260 260 258 254 250 249 251 251 254
252 254 254 253 251 252 253 252 253 250 250 251 250 251 252 254 254 254 253 253 253 253 254 254 253 252 252 253 253 253 254 257 256 257 258 262 259 258 254 250 252 252 249
252 253 251 252 251 250 250 250 249 249 249 251 251 251 251 252 252 252 252 252 253 253 252 252 253 252 252 252 252 255 258 262 262 262 262 254 257 258 257 255 256 253 253
Wind_Speed
7 5 6 7 8 8 9 9 8 4 6 7 7 6 6 6 6 5 6 7 8 6 6 7 8 7 5 4 2 2 1 2 4 2 2 4 3 7 5 4 4 4 2
7 7 8 8 9 9 10 9 7 9 9 9 8 8 9 8 8 9 10 9 8 8 8 10 10 6 9 6 5 7 4 4 4 6 3 2 4 3 4 5 4 3 3
9 9 11 10 10 12 11 10 11 11 10 10 10 10 9 9 11 10 11 11 11 11 10 10 9 10 9 6 6 5 5 5 6 7 4 3 4 2 3 3 2 1 2
10 11 13 12 11 11 10 11 11 11 11 11 10 11 10 10 11 10 11 12 11 11 11 12 11 11 8 7 6 6 6 7 7 7 5 4 2 2 3 2 1 2 2
12 12 14 12 12 13 13 13 12 14 12 11 11 12 12 11 8 9 10 10 11 11 11 11 12 11 13 10 5 5 5 5 4 4 3 3 2 2 2 2 2 1 1
13 13 13 13 14 14 13 13 12 13 13 12 13 12 13 9 18 18 12 10 9 10 9 9 9 8 12 18 19 18 9 3 3 2 2 3 3 2 2 2 2 2 1
13 16 15 13 14 12 11 11 11 12 11 12 12 11 12 12 18 18 15 9 9 9 9 8 8 6 8 7 14 17 17 19 13 3 3 3 3 1 3 2 1 1 1
15 14 12 13 11 9 11 10 10 9 10 10 10 10 10 10 17 17 16 10 9 10 9 7 8 7 8 6 7 9 10 12 11 7 7 5 5 4 4 2 3 1 2
14 12 11 9 9 8 10 9 8 8 9 9 9 9 9 8 16 14 9 7 9 9 8 9 8 8 12 11 7 8 8 8 10 14 14 12 10 9 6 2 3 4 2
11 10 9 9 10 9 7 7 6 7 8 7 9 9 9 8 15 13 9 5 7 5 6 8 14 9 15 13 6 5 7 5 5 6 5 6 7 6 9 5 2 2 2
9 8 10 9 7 7 7 5 5 7 7 7 8 8 8 8 10 15 14 5 4 4 5 5 4 13 13 13 12 7 5 4 6 4 3 3 3 4 3 3 4 2 2
7 6 8 7 6 5 5 3 5 5 6 5 5 5 4 6 9 13 15 14 11 5 4 3 3 11 11 11 6 9 10 7 3 3 3 3 3 2 2 3 2 2 1
7 10 8 8 7 6 5 5 4 4 4 3 4 4 3 4 4 12 12 12 12 6 3 6 9 8 9 7 11 11 6 3 2 3 3 2 1 2 2 2 3 4 3
8 7 5 4 3 4 3 3 3 4 3 3 3 3 2 1 1 1 2 2 6 5 4 1 1 3 5 4 3 3 2 2 1 1 1 2 2 1 2 1 1 1 1
4 4 4 3 3 2 2 2 2 1 3 3 2 1 1 2 2 5 3 0 2 3 3 1 1 1 2 2 2 2 2 3 3 1 1 1 1 2 2 2 1 2 1
1 1 2 3 3 2 1 2 7 9 10 11 10 6 2 7 9 7 5 6 5 5 3 3 4 4 4 4 4 4 4 4 3 3 2 1 1 1 2 2 1 0 1
4 4 3 4 4 3 3 3 3 5 11 13 15 14 10 12 14 14 10 14 16 10 5 5 3 4 4 3 3 2 2 1 2 2 1 1 1 1 0 1 1 1 2
5 5 2 2 1 2 3 3 2 2 2 5 12 14 14 16 16 16 8 10 6 8 5 4 4 4 3 3 3 2 2 2 2 2 2 2 2 1 1 2 2 1 1
3 3 3 2 1 2 1 2 2 4 5 5 4 8 11 13 15 17 18 6 3 4 3 4 3 4 3 3 3 4 4 3 3 3 2 2 2 1 2 2 2 4 3
3 4 3 2 3 3 3 3 5 5 4 2 2 2 3 5 5 5 5 4 4 3 3 3 3 2 2 3 3 3 3 2 3 2 3 3 3 2 2 3 2 1 1
1 1 2 2 3 2 3 4 3 3 3 3 3 5 12 4 2 2 2 3 2 2 1 0 2 2 2 2 2 2 2 3 2 3 2 2 2 2 2 3 2 2 2
2 2 3 3 2 4 4 3 4 4 4 4 3 5 12 3 3 2 2 2 2 2 2 1 3 2 2 3 2 2 3 4 3 3 3 3 3 3 2 2 2 2 2
3 3 3 3 3 4 5 4 4 3 3 3 2 3 2 2 2 2 2 3 3 3 3 2 3 3 3 3 3 3 3 5 5 4 4 5 4 4 3 3 3 3 2
3 4 4 3 3 3 3 3 2 4 3 3 3 2 2 2 2 3 3 3 3 3 3 3 3 5 5 5 4 4 4 5 5 5 7 6 6 5 3 3 4 4 4
3 4 4 3 3 2 3 3 3 3 3 2 3 3 2 3 3 3 3 3 3 4 5 5 4 5 7 8 8 9 8 10 8 7 5 7 7 7 5 4 5 4 4
3 4 3 2 3 3 3 2 2 2 2 1 1 2 2 3 3 3 4 4 4 5 6 5 6 9 10 8 9 11 11 13 11 12 8 4 5 5 5 6 9 5 7
Wind_Direction
48 41 60 60 73 68 68 61 59 52 49 63 58 56 40 28 29 63 61 50 51 42 55 69 62 57 37 24 36 55 115 125 118 98 89 111 102 128 122 113 129 127 168
48 51 54 65 71 77 74 63 72 65 51 56 61 62 57 50 40 57 58 42 60 66 51 65 62 59 63 39 45 50 59 56 109 110 105 120 85 109 121 121 145 157 190
52 57 57 51 62 65 67 71 67 68 64 63 61 61 60 59 72 60 69 66 57 51 54 64 60 69 56 37 40 51 58 61 76 120 106 56 73 62 94 84 128 189 231
56 61 61 51 51 60 64 66 66 66 66 62 60 64 62 59 61 70 73 73 67 62 56 55 52 54 60 54 51 41 58 75 80 91 82 83 91 61 67 117 158 170 190
60 64 55 54 56 56 55 58 60 58 56 55 61 55 54 55 52 64 69 75 74 66 62 62 56 56 58 57 60 38 45 70 78 99 109 122 122 137 168 160 119 113 92
57 61 62 50 50 48 47 55 59 63 60 58 56 58 57 55 61 67 65 70 70 65 62 58 56 52 66 71 72 70 71 82 79 93 79 100 100 99 105 115 119 129 190
59 52 50 49 53 47 47 53 54 63 68 64 63 65 68 69 65 60 57 61 61 61 56 53 55 41 42 47 59 59 51 53 53 73 89 63 104 107 130 132 113 73 37
48 48 44 55 48 49 55 48 51 53 59 65 57 53 64 64 68 70 66 65 62 56 57 55 64 48 49 51 58 60 50 48 43 49 64 61 61 47 49 52 73 48 28
47 47 41 42 55 44 53 44 46 63 58 57 59 60 62 60 69 71 67 66 65 56 57 52 48 50 48 50 61 67 62 48 38 54 63 63 65 63 68 50 20 49 348
33 39 41 42 49 45 50 47 39 61 63 57 57 47 48 59 63 70 67 60 75 63 49 49 62 61 54 49 54 61 65 36 35 23 28 39 45 37 46 54 79 81 49
32 30 47 35 47 40 43 33 38 56 62 54 61 44 41 39 54 60 64 61 68 66 52 37 28 55 56 55 62 64 72 57 35 39 29 25 25 34 32 38 42 104 125
34 36 40 31 21 37 53 37 40 57 66 47 55 52 26 24 62 64 68 67 63 67 53 23 21 51 48 52 46 54 59 63 48 39 40 19 29 16 22 28 356 324 242
28 28 22 28 29 23 39 38 51 47 65 56 69 59 34 17 20 49 64 72 70 62 48 56 59 61 66 52 52 51 56 51 35 41 32 359 299 265 271 279 259 234 236
26 20 13 31 7 23 41 50 69 64 63 67 69 63 36 313 357 30 59 63 86 88 79 70 118 117 96 92 64 76 112 119 87 59 280 274 307 326 281 269 264 354 23
10 354 1 351 4 7 25 116 94 219 139 119 102 101 26 25 7 34 43 226 201 185 139 306 355 75 62 22 19 17 30 31 41 34 47 307 307 333 297 9 355 346 163
93 10 346 344 341 355 73 47 84 107 109 95 88 79 30 36 55 32 19 43 12 172 56 62 53 42 47 27 17 11 41 17 1 7 20 344 308 323 301 321 324 181 244
29 6 351 356 1 5 0 40 79 57 81 68 50 35 23 60 39 21 35 61 43 53 61 47 47 40 34 20 14 10 349 333 341 6 22 345 327 245 293 268 271 252 266
348 353 359 345 14 41 43 58 82 132 50 52 40 35 38 47 43 32 54 53 36 31 46 43 40 30 13 2 343 336 300 322 355 352 351 325 321 305 308 297 297 285 287
327 347 342 326 14 66 50 54 42 57 57 42 16 22 15 53 53 51 56 70 71 50 28 32 12 5 357 347 333 333 335 336 344 331 312 318 320 311 299 314 313 329 334
351 4 24 14 21 26 26 48 76 79 72 48 46 8 347 31 32 28 36 45 47 31 16 15 352 350 328 325 326 333 335 343 334 323 320 326 322 320 300 294 297 292 281
11 30 61 70 64 61 60 63 71 80 70 42 7 61 78 89 82 56 22 13 45 36 7 355 306 303 294 290 293 307 287 288 279 275 280 279 287 300 277 278 278 277 267
55 36 34 57 30 62 66 74 76 85 84 74 17 28 70 40 43 38 17 359 338 334 304 306 314 300 287 289 291 290 290 292 284 261 270 265 260 254 254 265 283 268 271
100 80 48 33 34 62 63 53 77 79 76 62 59 55 38 46 24 15 354 326 329 332 316 334 309 314 295 279 263 240 267 283 283 273 275 277 272 260 218 241 238 268 254
92 97 103 92 79 68 66 67 51 59 60 55 49 40 36 27 2 341 331 331 327 318 298 302 298 296 303 298 291 275 257 262 258 265 267 263 264 258 244 237 246 241 248
90 94 87 94 98 101 82 60 57 51 54 47 19 7 340 345 338 325 313 306 299 297 303 301 281 278 285 294 291 292 285 291 279 262 264 269 252 252 241 230 243 253 238
87 92 105 107 96 90 96 96 84 59 43 3 328 305 293 305 291 288 291 301 309 307 303 293 292 293 295 290 284 285 284 287 287 279 269 232 244 251 249 247 254 237 246